Home > Weather > Olympia > Past weeks

Flag for USA Past Weather in Olympia, Washington, USA — Yesterday and Last 2 Weeks

Now
59 °F

Overcast.


Feels Like: 58 °F
Forecast: 50 / 61 °F
Wind: 6 mph from Southwest

Location: Olympia Airport

Current Time: May 26, 2016 at 1:33:59 PM

Latest Report: May 26, 2016 at 12:54 PM


Visibility: 10 mi

Pressure: 30.19 "Hg

Humidity: 54%

Dew Point: 42 °F

Location of OlympiaLocation

Past Weather in Olympia — Graph

°F

Olympia Temperature Yesterday

Maximum temperature yesterday: 59 °F (at 11:54 AM)
Minimum temperature yesterday: 44 °F (at 1:54 AM)
Average temperature yesterday: 53 °F

High & Low Weather Summary for the Past Weeks

 TemperatureHumidityPressure
High84 °F (May 13, 4:54 PM)96% (May 24, 5:54 AM)30.29 "Hg (May 24, 5:54 AM)
Low41 °F (May 12, 5:54 AM)16% (May 11, 3:54 PM)29.75 "Hg (May 20, 6:54 PM)
Average57 °F70%30.01 "Hg
* Reported May 11 11:54 AM — May 26 11:54 AM, Olympia, Weather by CustomWeather, © 2016

Note: Actual official high and low records may vary slightly from our data, if they occured in-between our weather recording intervals... More about our weather records

Advertising

Olympia Weather History for the Previous 24 Hours

Scroll right to see more
 ConditionsComfort  
Time TempWeatherWind HumidityBarometerVisibility
11:54 AM
Thu, May 26
58 °FOvercast.10 mph56%30.19 "Hg10 mi
10:54 AM59 °FBroken clouds.12 mph54%30.19 "Hg10 mi
9:54 AM56 °FPartly sunny.9 mph53%30.19 "Hg10 mi
8:54 AM55 °FPartly sunny.12 mph57%30.19 "Hg10 mi
7:54 AM53 °FOvercast.7 mph74%30.20 "Hg10 mi
6:54 AM51 °FSunny.8 mph80%30.20 "Hg10 mi
5:54 AM46 °FClear.7 mph86%30.20 "Hg10 mi
4:54 AM48 °FClear.7 mph83%30.20 "Hg10 mi
3:54 AM49 °FClear.9 mph77%30.20 "Hg10 mi
2:54 AM48 °FClear.7 mph80%30.20 "Hg10 mi
1:54 AM49 °FClear.7 mph74%30.21 "Hg10 mi
12:54 AM49 °FClear.6 mph74%30.21 "Hg10 mi
11:54 PM
Wed, May 25
50 °FClear.5 mph71%30.22 "Hg10 mi
10:54 PM50 °FClear.6 mph68%30.21 "Hg10 mi
9:54 PM52 °FPassing clouds.9 mph66%30.21 "Hg10 mi
8:54 PM54 °FPartly sunny.9 mph64%30.20 "Hg10 mi
7:54 PM56 °FOvercast.10 mph65%30.20 "Hg10 mi
6:54 PM57 °FOvercast.8 mph62%30.19 "Hg10 mi
5:54 PM59 °FOvercast.8 mph62%30.19 "Hg10 mi
4:54 PM58 °FPartly sunny.13 mph65%30.19 "Hg10 mi
3:54 PM59 °FOvercast.10 mph67%30.19 "Hg10 mi
2:54 PM59 °FOvercast.13 mph67%30.19 "Hg10 mi
1:54 PM59 °FOvercast.9 mph67%30.18 "Hg10 mi
Weather by CustomWeather, © 2016

See weather overviewHow to use our weather pages